DJ3OW-13 Weather Reports


Display with metric or nautical units.
time (UTC)temp
F
wind
direction
speed
MPH
gust
MPH
rain 1hr
in
rain 24hr
in
rain mn
in
humidity
%
barometer
mb
20260831060605 63 4 1.0 6.0 0.00 0.00 0.00 86 1014.0
20260831055623 62 25 1.0 4.0 0.00 0.00 0.00 87 1013.8
20260831054601 62 2 1.0 4.0 0.00 0.00 0.00 88 1013.7
20260831053559 62 26 1.0 2.0 0.00 0.00 0.00 88 1013.7
20260831052557 61 13 1.0 4.0 0.00 0.00 0.00 88 1013.6
20260831051615 61 11 1.0 2.0 0.00 0.00 0.00 88 1013.5
20260831050553 61 23 1.0 2.0 0.00 0.00 0.00 88 1013.4
20260831045551 61 23 0.0 2.0 0.00 0.00 0.00 87 1013.5
20260831044609 60 23 0.0 2.0 0.00 0.00 0.00 87 1013.5
20260831043547 60 23 1.0 2.0 0.00 0.00 0.00 88 1013.5
20260831042545 60 0.0 0.0 0.00 0.00 0.00 87 1013.3
20260831041543 60 23 0.0 2.0 0.00 0.00 0.00 87 1013.3
20260831040601 60 23 0.0 2.0 0.00 0.00 0.00 86 1013.2
20260831035539 60 0.0 2.0 0.00 0.00 0.00 86 1013.0
20260831034537 60 23 0.0 2.0 0.00 0.00 0.00 85 1013.2
20260831033535 61 23 0.0 2.0 0.00 0.00 0.00 84 1013.4
20260831032533 60 23 0.0 2.0 0.00 0.00 0.00 85 1013.6
20260831031531 60 0.0 2.0 0.00 0.00 0.00 86 1013.6
20260831030529 60 55 1.0 2.0 0.00 0.00 0.00 87 1013.6
20260831025547 60 68 0.0 2.0 0.00 0.00 0.00 86 1013.4
20260831024525 60 68 0.0 2.0 0.00 0.00 0.00 86 1013.6
20260831023543 60 0.0 2.0 0.00 0.00 0.00 85 1013.5
20260831022521 60 68 0.0 2.0 0.00 0.00 0.00 86 1013.5
20260831021519 59 90 1.0 2.0 0.00 0.00 0.00 87 1013.7
20260831020517 59 79 1.0 2.0 0.00 0.00 0.00 87 1014.1
20260831015515 60 80 1.0 2.0 0.00 0.00 0.00 87 1014.2
20260831014613 60 73 1.0 2.0 0.00 0.00 0.00 87 1014.0
20260831013611 59 0.0 2.0 0.00 0.00 0.00 87 1014.2
20260831012609 59 68 0.0 2.0 0.00 0.00 0.00 87 1014.2
20260831011607 59 0.0 0.0 0.00 0.00 0.00 87 1014.3
20260831010605 59 68 0.0 2.0 0.00 0.00 0.00 87 1014.4
20260831005603 59 72 1.0 2.0 0.00 0.00 0.00 87 1014.4
20260831004601 60 0.0 2.0 0.00 0.00 0.00 86 1014.5
20260831003559 60 68 0.0 2.0 0.00 0.00 0.00 87 1014.4
20260831002557 59 68 0.0 2.0 0.00 0.00 0.00 87 1014.4
20260831001555 59 68 0.0 2.0 0.00 0.00 0.00 88 1014.5
20260831000553 59 0.0 0.0 0.00 0.00 0.00 87 1014.5
20260830235551 59 68 0.0 2.0 0.00 0.00 0.00 86 1014.6
20260830234549 59 68 0.0 2.0 0.00 0.00 0.00 87 1014.8
20260830233546 59 0.0 0.0 0.00 0.00 0.00 86 1014.8
20260830232605 59 0.0 2.0 0.00 0.00 0.00 86 1014.9
20260830231543 59 90 0.0 2.0 0.00 0.00 0.00 86 1015.0
20260830230540 59 113 0.0 2.0 0.00 0.00 0.00 86 1015.1
20260830225538 60 90 0.0 2.0 0.00 0.00 0.00 86 1015.3
20260830224557 59 113 0.0 2.0 0.00 0.00 0.00 87 1015.3
20260830223554 59 113 0.0 2.0 0.00 0.00 0.00 87 1015.2
20260830222532 59 0.0 2.0 0.00 0.00 0.00 87 1015.3
20260830221531 60 0.0 2.0 0.00 0.00 0.00 86 1015.3
20260830220528 60 113 0.0 2.0 0.00 0.00 0.00 86 1015.5
20260830215547 60 113 0.0 2.0 0.00 0.00 0.00 86 1015.4
20260830214544 60 0.0 0.0 0.00 0.00 0.00 85 1015.4
20260830213523 60 0.0 0.0 0.00 0.01 0.00 85 1015.4
20260830212540 61 90 0.0 2.0 0.00 0.01 0.00 84 1015.4
20260830211518 61 0.0 2.0 0.00 0.01 0.00 83 1015.5
20260830210516 61 90 0.0 2.0 0.00 0.01 0.00 82 1015.6
20260830205635 62 90 0.0 2.0 0.00 0.01 0.00 82 1015.6
20260830204613 62 113 1.0 4.0 0.00 0.01 0.00 82 1015.5
20260830203610 61 120 1.0 4.0 0.00 0.01 0.00 83 1015.7
20260830202608 62 113 0.0 2.0 0.00 0.01 0.00 83 1015.7
20260830201607 62 113 1.0 2.0 0.00 0.01 0.00 82 1015.6
20260830200604 62 113 2.0 4.0 0.00 0.01 0.00 82 1015.8
20260830195602 62 113 2.0 2.0 0.00 0.01 0.00 82 1015.8
20260830194600 62 115 1.0 2.0 0.00 0.01 0.00 82 1015.8
20260830193558 63 113 1.0 2.0 0.00 0.01 0.00 81 1015.8
20260830192616 64 146 1.0 4.0 0.00 0.01 0.00 79 1015.9
20260830191554 64 0.0 0.0 0.00 0.01 0.00 78 1015.9
20260830190552 65 0.0 0.0 0.00 0.01 0.00 75 1015.9
20260830185610 67 0.0 0.0 0.00 0.01 0.00 72 1015.9
20260830184548 67 238 1.0 4.0 0.00 0.01 0.00 70 1015.9
20260830183546 68 256 1.0 4.0 0.00 0.01 0.00 69 1015.9
20260830182605 68 270 1.0 2.0 0.00 0.01 0.00 69 1015.9
20260830181542 68 248 0.0 2.0 0.00 0.01 0.00 68 1015.8
20260830180540 69 225 0.0 2.0 0.00 0.01 0.00 68 1015.8
20260830175538 69 270 0.0 2.0 0.00 0.01 0.00 67 1015.7
20260830174536 69 248 0.0 2.0 0.00 0.01 0.00 67 1015.8
20260830173534 70 248 0.0 2.0 0.00 0.01 0.00 66 1015.7
20260830172532 70 262 1.0 2.0 0.00 0.01 0.00 66 1015.7
20260830171530 71 264 2.0 4.0 0.00 0.01 0.00 65 1015.8
20260830170548 71 282 1.0 4.0 0.00 0.01 0.00 65 1015.9
20260830165526 71 273 3.0 4.0 0.00 0.01 0.00 64 1015.8
20260830164524 71 293 3.0 6.0 0.00 0.01 0.00 64 1015.8
20260830163522 72 263 1.0 4.0 0.00 0.01 0.00 64 1015.7
20260830162520 72 276 3.0 6.0 0.00 0.01 0.00 64 1015.8
20260830161518 72 265 4.0 9.0 0.00 0.01 0.00 63 1015.7
20260830160516 71 265 4.0 7.0 0.00 0.01 0.00 65 1015.7
20260830155614 71 228 3.0 6.0 0.00 0.01 0.00 65 1015.7
20260830154612 72 275 4.0 9.0 0.00 0.01 0.00 65 1015.6
20260830153610 72 265 3.0 6.0 0.00 0.01 0.00 64 1015.7
20260830152608 73 256 2.0 4.0 0.00 0.01 0.00 65 1015.8
20260830151606 71 272 4.0 11.0 0.00 0.01 0.00 65 1015.6
20260830150624 72 255 4.0 11.0 0.00 0.01 0.00 65 1015.7
20260830145602 71 289 4.0 9.0 0.00 0.01 0.00 65 1015.6
20260830144600 71 265 4.0 11.0 0.00 0.01 0.00 66 1015.7
20260830143557 73 253 3.0 7.0 0.00 0.01 0.00 63 1015.7
20260830142556 71 264 3.0 7.0 0.00 0.01 0.00 66 1015.4
20260830141553 72 258 3.0 6.0 0.00 0.01 0.00 64 1015.6
20260830140551 72 280 4.0 8.0 0.00 0.01 0.00 66 1015.5
20260830135549 71 262 4.0 8.0 0.00 0.01 0.00 65 1015.6
20260830134547 72 267 5.0 9.0 0.00 0.01 0.00 64 1015.5
20260830133545 72 262 5.0 13.0 0.00 0.01 0.00 64 1015.4
20260830132543 71 274 4.0 7.0 0.00 0.01 0.00 66 1015.3
20260830131541 71 262 4.0 11.0 0.00 0.01 0.00 66 1015.3
20260830130539 71 250 3.0 7.0 0.00 0.01 0.00 66 1015.2
20260830125537 71 275 4.0 9.0 0.00 0.01 0.00 66 1015.1
20260830124535 71 256 5.0 11.0 0.00 0.01 0.00 64 1015.2
20260830123553 73 255 5.0 11.0 0.00 0.01 0.00 64 1015.0
20260830122531 72 268 4.0 11.0 0.00 0.01 0.00 66 1015.0
20260830121529 71 268 6.0 11.0 0.00 0.01 0.00 67 1014.9
20260830120527 71 246 4.0 11.0 0.00 0.01 0.00 66 1014.9
20260830115525 71 295 3.0 11.0 0.00 0.01 0.00 66 1014.9
20260830114523 71 274 6.0 14.0 0.00 0.01 0.00 65 1014.8
20260830113521 72 261 5.0 13.0 0.00 0.01 0.00 64 1014.5
20260830112519 71 257 5.0 11.0 0.00 0.01 0.00 64 1014.5
20260830111517 71 284 6.0 14.0 0.00 0.01 0.00 63 1014.5
20260830110515 72 291 3.0 9.0 0.00 0.01 0.00 63 1014.5
20260830105613 71 249 4.0 11.0 0.00 0.01 0.00 63 1014.4
20260830104631 71 262 5.0 11.0 0.00 0.01 0.00 62 1014.5
20260830103609 71 272 2.0 7.0 0.00 0.01 0.00 64 1014.5
20260830102607 71 300 3.0 7.0 0.00 0.01 0.00 65 1014.5
20260830101605 70 261 4.0 11.0 0.00 0.01 0.00 65 1014.5
20260830100602 70 240 3.0 8.0 0.00 0.01 0.00 65 1014.5
20260830095601 70 354 3.0 8.0 0.00 0.01 0.00 64 1014.3
20260830094559 70 241 3.0 6.0 0.00 0.01 0.00 64 1014.3
20260830093556 70 252 4.0 11.0 0.00 0.01 0.00 64 1014.3
20260830092554 70 287 5.0 11.0 0.00 0.01 0.00 64 1014.1
20260830091552 71 263 4.0 8.0 0.00 0.01 0.00 63 1013.9
20260830090550 71 263 5.0 11.0 0.00 0.01 0.00 63 1013.8
20260830085708 71 274 5.0 8.0 0.00 0.01 0.00 65 1013.8
20260830084546 70 263 6.0 15.0 0.00 0.01 0.00 66 1013.6
20260830083544 70 268 7.0 15.0 0.00 0.01 0.00 66 1013.6
20260830082622 70 280 5.0 22.0 0.00 0.01 0.00 67 1013.6
20260830081540 70 283 3.0 13.0 0.00 0.01 0.00 68 1013.5
20260830075536 70 280 5.0 11.0 0.00 0.01 0.00 70 1013.4
20260830074534 69 337 4.0 14.0 0.00 0.01 0.00 72 1013.4
20260830073532 69 281 3.0 8.0 0.00 0.01 0.00 73 1013.2
20260830072600 69 261 2.0 8.0 0.00 0.01 0.00 74 1013.2
20260830071558 68 285 2.0 8.0 0.00 0.01 0.00 75 1013.0
20260830070556 68 284 3.0 6.0 0.00 0.01 0.00 76 1013.0
20260830065554 67 301 3.0 8.0 0.00 0.01 0.00 77 1012.9
20260830064552 67 306 2.0 6.0 0.00 0.01 0.00 81 1012.7
20260830063550 66 5 1.0 4.0 0.00 0.01 0.00 84 1012.6
20260830062608 65 263 1.0 4.0 0.00 0.01 0.00 85 1012.7
20260830061606 65 308 1.0 4.0 0.00 0.01 0.00 86 1012.6